Wind_Speed
23 20 20 20 19 17 17 16 15 14 13 13 12 11 10 9 9 8 7 6 5 5 3 3 2 3 4 5 7 7 7 6 7 7 6 5 5 6 7 7 8 7 6
24 21 20 20 20 18 17 16 14 12 11 11 10 9 8 8 7 6 5 4 3 2 2 1 2 4 5 5 6 6 7 7 7 7 6 4 3 3 6 7 8 8 6
23 21 20 19 19 18 17 16 13 12 11 10 9 8 7 6 5 5 5 4 3 3 1 1 2 4 4 5 5 6 6 6 6 6 5 4 4 4 5 6 7 8 8
22 21 19 18 18 17 16 14 12 11 10 10 8 7 6 6 6 6 6 6 6 6 5 5 5 4 5 6 5 6 6 6 5 4 4 2 3 3 4 5 6 6 6
21 20 18 17 17 16 14 12 11 11 10 8 7 7 7 7 7 7 7 7 7 7 7 7 7 7 7 7 7 7 7 7 6 4 3 3 3 4 6 6 5 6 5
21 20 18 16 15 14 13 12 11 10 7 7 7 8 8 8 9 8 8 8 8 8 8 8 8 8 8 9 8 9 9 8 7 5 3 4 4 5 5 6 6 7 7
21 19 17 15 14 13 12 11 9 7 8 8 9 9 8 9 9 9 8 8 8 8 8 8 8 8 8 9 10 10 10 10 9 7 5 3 5 6 7 5 6 7 8
19 18 17 16 14 12 10 9 8 8 8 10 10 9 9 10 9 9 10 9 10 9 10 10 10 10 10 11 11 11 11 10 9 7 6 5 6 8 9 9 9 10 11
18 18 17 15 13 10 9 8 9 10 11 11 11 10 10 10 11 11 11 9 10 9 9 10 9 10 10 11 12 12 13 12 10 8 7 7 7 9 11 12 12 13 13
18 18 16 13 11 9 9 10 10 11 11 12 11 10 9 10 9 8 7 7 6 5 5 6 7 7 8 9 10 10 11 12 11 10 9 9 11 12 14 15 16 16 15
20 18 14 11 10 10 10 11 11 12 11 11 11 8 8 7 6 5 4 3 3 2 2 2 3 3 3 4 6 7 9 10 11 11 10 10 10 11 12 14 16 17 17
20 16 13 12 10 9 9 10 11 11 12 11 9 7 5 4 2 1 1 1 1 1 1 1 2 4 5 6 7 9 9 10 11 12 13 13 13 13 13 13 12 12 14
18 16 15 12 11 10 10 10 10 9 9 9 6 4 3 1 2 3 4 5 5 4 4 5 7 8 8 10 11 13 13 14 16 18 18 17 18 18 18 17 17 17 15
19 16 14 13 12 11 10 9 7 5 5 4 3 3 2 3 2 3 3 6 7 7 7 9 10 11 12 13 15 15 16 18 20 22 23 23 22 22 22 21 22 22 21
17 16 13 12 12 11 9 7 5 4 4 5 6 7 8 7 7 5 5 7 8 8 10 12 14 14 15 16 17 18 20 23 25 26 27 27 27 26 25 25 24 25 25
17 17 14 11 11 10 8 6 6 7 9 10 11 12 12 12 13 9 8 9 10 11 14 15 17 16 17 19 20 22 24 27 29 30 30 29 27 25 26 28 28 28 28
17 17 16 15 14 11 9 5 1 1 6 10 11 14 17 17 14 12 11 12 13 14 15 16 16 17 19 21 22 26 28 29 31 32 32 30 27 26 25 25 27 29 31
19 19 20 20 17 13 11 10 9 9 13 16 14 18 16 14 15 12 12 13 14 15 16 17 20 22 23 25 27 29 30 32 32 32 31 29 27 26 25 24 25 26 27
18 21 23 22 21 18 17 12 13 8 18 18 11 6 9 11 11 10 11 12 14 16 18 20 22 25 27 30 32 32 32 30 29 29 28 25 23 22 22 24 24 24 26
18 20 21 19 17 16 13 22 20 7 2 3 6 6 8 10 13 15 17 18 19 20 21 22 25 27 28 29 29 28 26 25 23 20 20 20 22 23 25 27 28 29 28
8 9 10 9 15 7 12 7 11 7 8 6 5 7 9 12 14 16 17 19 21 23 25 26 27 27 26 28 27 19 22 10 8 11 18 22 21 21 26 30 30 30 31
5 6 4 3 6 9 9 10 10 8 4 3 9 13 16 19 18 17 18 19 22 23 24 25 25 26 26 26 23 16 10 12 11 10 13 22 24 24 24 28 26 25 24
22 20 17 15 14 12 10 7 6 4 3 8 12 15 16 18 16 16 19 20 22 23 23 24 25 26 24 23 20 12 9 8 15 11 12 21 20 23 24 20 18 17 17
20 19 17 15 12 10 7 3 1 2 5 10 10 12 14 14 16 18 19 19 19 21 23 24 24 23 21 16 15 12 14 14 10 15 14 19 21 19 21 20 17 17 15
16 14 13 11 8 5 3 3 5 6 6 7 9 12 15 17 17 17 16 18 19 20 20 21 21 21 19 16 12 13 14 11 11 11 19 18 19 19 17 21 21 19 18
13 13 12 10 8 6 4 4 5 5 5 8 12 15 16 16 14 15 17 18 18 20 21 21 20 18 17 15 14 12 12 13 15 16 20 23 22 22 18 17 17 18 19
Wind_Direction
161 155 152 155 154 150 148 145 142 140 138 136 129 121 120 117 124 121 120 111 110 101 96 77 47 12 353 351 347 343 341 338 331 341 351 8 39 35 32 37 43 47 40
159 156 153 158 157 155 155 153 152 150 145 139 133 128 125 123 118 119 114 114 117 108 78 25 356 344 336 334 333 333 334 329 329 334 346 16 6 27 44 41 37 36 34
160 160 157 157 159 162 160 160 158 155 150 146 144 137 130 125 127 118 107 97 82 68 76 28 356 336 334 338 337 329 326 325 324 330 344 27 69 74 54 39 30 32 21
162 160 157 159 163 164 163 162 156 153 155 158 147 130 120 114 110 97 88 81 78 84 89 71 52 27 15 5 0 348 342 336 331 333 339 8 39 27 13 3 17 11 360
159 156 154 158 163 162 160 159 158 162 161 147 127 120 119 115 106 102 96 90 85 79 72 66 58 48 42 32 25 16 8 357 351 343 320 326 346 347 349 4 17 12 357
156 152 149 153 157 159 161 164 163 162 149 135 126 123 118 110 106 98 94 90 83 78 73 66 57 50 43 37 32 25 19 12 8 353 320 296 301 309 339 347 348 358 357
156 151 151 155 160 164 165 165 161 155 146 137 131 128 121 114 107 101 93 86 80 72 67 62 56 46 41 36 28 23 15 12 13 9 358 324 296 292 299 302 322 337 338
158 155 155 158 162 167 166 165 156 153 143 135 129 125 121 114 107 104 97 87 86 84 74 63 64 63 54 41 29 23 17 13 15 13 356 335 316 304 305 302 306 315 325
161 158 156 157 167 168 165 160 156 149 143 136 131 130 125 123 118 109 98 89 89 85 73 80 69 65 52 46 37 26 17 13 3 357 348 330 317 310 305 303 303 306 312
159 156 157 162 169 168 161 154 151 142 139 136 133 133 131 123 115 104 99 89 92 92 85 85 72 66 62 54 41 32 25 20 12 1 345 323 312 306 303 299 298 299 299
159 159 159 162 171 166 160 153 146 141 142 139 138 132 130 126 112 103 104 94 90 103 97 95 87 68 46 29 18 11 8 5 1 357 348 334 328 322 314 309 301 297 296
162 162 164 170 167 160 155 144 144 145 146 144 144 123 129 125 105 72 39 330 352 352 289 280 292 309 315 325 336 340 340 339 339 334 326 317 312 309 309 308 307 308 306
165 172 174 165 153 149 139 140 139 139 152 155 159 131 107 91 20 322 307 316 310 317 300 303 303 305 307 314 320 326 328 327 324 321 317 307 300 296 294 295 294 295 294
177 177 174 166 155 155 149 146 150 144 154 176 200 241 293 292 320 335 319 297 297 304 306 307 303 302 305 309 313 318 323 323 321 318 315 308 298 291 287 286 286 286 287
179 180 181 174 173 175 171 167 186 206 230 255 270 278 274 284 269 288 302 304 299 298 303 303 297 294 298 303 306 309 313 316 316 316 314 309 298 290 283 281 280 280 280
191 192 189 189 191 194 190 197 221 243 264 272 266 273 277 275 268 275 292 295 289 289 292 291 286 289 296 296 297 300 305 310 313 314 313 308 301 291 280 277 277 276 274
210 208 205 206 204 207 208 218 215 278 321 300 289 287 282 277 279 290 287 283 275 280 284 283 288 294 295 294 293 297 301 305 307 308 306 302 297 293 288 282 277 274 271
228 226 222 216 208 200 173 144 5 284 289 280 279 272 286 295 303 299 288 283 283 291 291 293 294 294 297 299 302 301 302 304 303 300 297 295 292 289 286 282 278 276 275
240 240 238 230 219 204 194 191 12 288 287 306 323 337 330 324 322 314 306 303 303 300 300 299 301 304 306 306 305 305 304 304 300 297 293 290 287 285 283 282 281 278 276
243 236 235 231 212 193 187 278 256 282 189 50 38 8 342 327 320 315 310 306 305 308 311 312 311 312 312 310 310 309 308 306 294 286 281 284 287 288 288 289 289 285 280
230 233 242 238 293 273 273 158 135 154 114 81 39 10 351 339 327 322 322 320 318 316 316 317 318 319 321 323 326 315 319 306 264 254 271 279 282 285 291 294 293 292 289
110 133 165 107 133 122 132 125 141 145 116 4 344 344 339 337 332 328 320 315 314 314 316 319 323 326 326 326 324 322 314 294 284 259 276 292 292 292 291 298 296 294 291
105 103 104 105 107 114 126 141 143 150 341 341 333 327 324 319 316 314 314 315 318 321 324 326 328 328 326 323 320 314 309 291 306 286 299 297 299 301 304 304 302 301 299
109 110 115 117 120 128 135 146 211 288 293 314 309 306 314 308 313 313 315 318 323 325 327 328 328 325 321 316 312 301 292 287 293 296 292 298 298 305 306 311 311 304 300
135 133 130 130 142 148 171 223 266 285 291 306 308 317 316 313 313 314 321 326 325 324 325 326 327 328 328 324 311 305 303 297 291 280 301 305 299 302 301 301 308 309 305
163 166 163 166 172 197 218 259 289 308 326 335 325 321 316 313 314 320 326 326 327 328 326 322 319 319 319 319 311 303 298 298 298 294 294 298 294 300 292 295 299 300 302
Height
1556 1559 1562 1565 1566 1568 1570 1572 1573 1574 1575 1576 1577 1578 1579 1579 1580 1580 1581 1580 1580 1580 1580 1580 1579 1578 1578 1577 1576 1576 1575 1574 1573 1572 1572 1572 1571 1571 1572 1571 1570 1569 1569
1556 1560 1563 1566 1567 1569 1572 1573 1574 1575 1576 1577 1578 1578 1579 1580 1580 1582 1581 1581 1580 1580 1580 1580 1579 1577 1577 1576 1577 1575 1574 1574 1573 1572 1571 1573 1572 1571 1572 1572 1571 1570 1570
1558 1561 1564 1565 1568 1571 1573 1575 1575 1576 1577 1579 1580 1580 1581 1580 1581 1581 1580 1581 1581 1580 1580 1579 1578 1577 1577 1576 1576 1575 1574 1573 1572 1571 1571 1573 1572 1572 1572 1572 1571 1571 1570
1558 1561 1565 1567 1570 1572 1574 1576 1576 1578 1578 1580 1580 1581 1581 1581 1581 1581 1581 1580 1581 1581 1580 1579 1578 1579 1578 1577 1576 1575 1574 1573 1572 1571 1571 1572 1572 1572 1572 1572 1571 1571 1570
1559 1562 1565 1568 1571 1573 1575 1576 1576 1578 1579 1580 1580 1580 1581 1581 1582 1580 1580 1580 1581 1581 1580 1579 1579 1579 1578 1578 1576 1575 1573 1573 1572 1571 1571 1571 1571 1571 1571 1572 1572 1571 1571
1559 1563 1566 1569 1572 1574 1576 1576 1577 1578 1578 1579 1579 1580 1581 1582 1582 1581 1581 1581 1581 1581 1580 1580 1579 1578 1578 1577 1577 1575 1574 1573 1573 1572 1572 1571 1571 1571 1571 1571 1571 1570 1568
1560 1563 1567 1570 1573 1575 1576 1577 1577 1578 1578 1579 1580 1581 1582 1583 1582 1581 1583 1582 1582 1581 1581 1580 1579 1579 1578 1577 1577 1576 1575 1574 1573 1573 1572 1572 1571 1571 1571 1571 1570 1569 1569
1562 1564 1568 1571 1574 1576 1576 1578 1578 1579 1579 1580 1581 1583 1583 1583 1583 1584 1584 1584 1583 1582 1581 1582 1582 1579 1578 1577 1577 1576 1575 1574 1573 1573 1572 1572 1571 1571 1571 1571 1570 1570 1569
1563 1566 1569 1572 1575 1576 1576 1578 1578 1579 1579 1580 1581 1583 1582 1583 1584 1583 1584 1586 1583 1583 1583 1580 1582 1580 1580 1578 1577 1576 1576 1574 1573 1573 1573 1572 1571 1571 1570 1570 1569 1568 1567
1563 1566 1570 1572 1575 1576 1577 1577 1579 1579 1581 1581 1582 1583 1583 1583 1584 1585 1586 1585 1585 1584 1585 1582 1583 1582 1580 1579 1578 1576 1576 1574 1573 1572 1572 1571 1570 1569 1568 1567 1567 1566 1565
1563 1567 1570 1573 1575 1576 1576 1577 1579 1580 1582 1584 1584 1585 1584 1585 1585 1585 1585 1586 1585 1585 1584 1584 1582 1582 1580 1579 1578 1577 1576 1574 1573 1572 1571 1570 1569 1567 1566 1564 1563 1562 1561
1564 1568 1570 1572 1574 1576 1578 1578 1580 1581 1582 1583 1585 1584 1585 1585 1585 1585 1585 1585 1584 1584 1584 1583 1582 1581 1580 1579 1577 1576 1575 1574 1573 1572 1571 1570 1568 1566 1564 1563 1561 1559 1558
1565 1568 1571 1574 1575 1578 1579 1580 1581 1583 1584 1584 1586 1585 1585 1586 1585 1586 1585 1584 1583 1582 1583 1582 1581 1580 1579 1578 1577 1575 1574 1572 1571 1569 1569 1567 1565 1564 1562 1560 1558 1556 1555
1564 1568 1571 1573 1575 1578 1579 1581 1582 1584 1585 1586 1585 1586 1585 1586 1584 1584 1583 1582 1582 1581 1581 1581 1580 1579 1577 1576 1574 1572 1571 1569 1568 1566 1564 1563 1561 1560 1558 1557 1555 1553 1551
1566 1569 1573 1573 1576 1578 1579 1581 1583 1584 1584 1585 1585 1586 1585 1585 1584 1581 1580 1580 1580 1579 1579 1577 1577 1576 1574 1573 1571 1569 1567 1565 1564 1561 1559 1558 1556 1554 1553 1551 1550 1549 1547
1568 1571 1572 1573 1576 1578 1579 1581 1582 1583 1583 1583 1583 1584 1584 1582 1582 1580 1578 1578 1577 1576 1576 1575 1574 1573 1572 1569 1567 1565 1563 1561 1558 1556 1554 1552 1550 1548 1547 1545 1544 1543 1542
1568 1569 1570 1572 1575 1577 1580 1581 1580 1581 1580 1580 1580 1581 1580 1580 1579 1578 1577 1576 1575 1573 1573 1571 1571 1569 1566 1565 1563 1561 1559 1557 1553 1550 1547 1545 1544 1541 1540 1539 1537 1536 1536
1566 1567 1569 1570 1572 1575 1576 1577 1578 1578 1577 1575 1578 1578 1579 1578 1577 1576 1576 1575 1573 1571 1569 1569 1567 1564 1561 1559 1556 1554 1552 1550 1547 1544 1541 1539 1537 1535 1534 1533 1531 1530 1529
1563 1565 1566 1567 1568 1571 1574 1573 1572 1573 1576 1577 1577 1577 1576 1576 1575 1575 1573 1572 1570 1568 1567 1565 1562 1559 1556 1553 1550 1547 1546 1544 1542 1539 1535 1532 1531 1529 1528 1526 1525 1524 1523
1560 1561 1564 1566 1566 1570 1569 1570 1575 1577 1577 1577 1577 1577 1576 1575 1575 1573 1571 1569 1567 1565 1562 1560 1558 1555 1551 1547 1544 1542 1540 1538 1536 1534 1531 1528 1526 1524 1522 1520 1519 1518 1517
1556 1559 1562 1566 1565 1567 1571 1576 1573 1578 1577 1576 1577 1576 1576 1575 1573 1571 1568 1566 1564 1561 1558 1556 1553 1549 1546 1542 1538 1536 1532 1530 1529 1529 1525 1524 1522 1519 1516 1514 1512 1510 1508
1557 1559 1562 1562 1565 1566 1572 1573 1574 1576 1576 1576 1575 1573 1572 1571 1568 1567 1566 1563 1561 1558 1556 1552 1549 1545 1541 1537 1535 1532 1530 1530 1525 1524 1521 1518 1517 1515 1512 1509 1507 1504 1502
1559 1561 1563 1566 1567 1569 1572 1574 1574 1574 1574 1573 1573 1572 1570 1569 1565 1564 1562 1559 1556 1554 1551 1548 1544 1540 1537 1535 1532 1532 1528 1524 1522 1521 1518 1515 1512 1510 1507 1505 1502 1500 1498
1562 1563 1564 1565 1567 1569 1571 1573 1573 1571 1571 1571 1571 1569 1566 1565 1561 1560 1557 1554 1552 1549 1547 1544 1540 1537 1534 1531 1529 1527 1525 1523 1521 1516 1516 1514 1510 1507 1504 1501 1499 1496 1494
1562 1563 1564 1565 1569 1570 1569 1570 1570 1569 1568 1567 1567 1564 1563 1561 1558 1556 1553 1551 1548 1545 1542 1539 1536 1533 1530 1528 1526 1524 1522 1520 1518 1515 1511 1511 1509 1506 1502 1498 1495 1493 1491
1561 1563 1563 1564 1565 1568 1568 1567 1566 1566 1565 1563 1563 1562 1560 1558 1555 1552 1550 1547 1544 1540 1537 1534 1532 1529 1527 1525 1523 1520 1519 1517 1515 1512 1509 1506 1504 1501 1497 1494 1492 1490 1488